Theta_e
351 347 346 346 343 341 340 341 348 346 346 344 344 342 342 340 337 338 335 335 334 335
347 347 345 347 347 342 345 343 346 346 344 343 343 341 341 336 337 336 337 337 336 332
346 345 346 345 343 344 344 343 343 343 343 341 340 340 339 337 336 336 339 334 331 328
342 343 343 343 343 343 344 342 340 339 339 338 338 339 338 336 335 334 335 335 332 332
342 342 342 341 342 342 340 340 339 338 336 336 336 336 335 334 334 331 333 332 331 330
339 339 339 339 340 340 339 339 337 336 334 334 334 334 335 334 333 334 333 332 331 331
335 337 338 339 339 339 338 337 336 336 334 333 333 333 334 333 334 334 334 332 333 332
337 338 338 338 338 338 338 336 335 334 333 333 332 331 334 335 335 334 333 334 331 334
335 336 336 337 337 338 336 335 335 333 333 333 330 308 316 328 335 333 332 333 328 331
334 334 335 335 335 336 336 337 335 335 334 334 333 304 306 314 335 335 333 332 331 328
331 332 333 334 334 336 338 336 337 335 333 334 325 303 302 309 334 335 333 331 332 331
330 332 333 333 335 336 337 336 335 333 330 332 331 303 302 313 332 333 331 331 331 331
329 333 332 335 336 337 337 335 332 330 330 320 331 303 301 316 333 330 328 329 329 308
332 333 334 335 336 336 335 332 332 331 332 333 329 322 304 307 328 328 327 326 325 325
Wind_Speed
13 10 10 9 10 8 8 8 11 9 9 9 8 7 6 6 5 6 8 7 6 3
11 11 10 11 10 7 7 8 10 9 8 8 7 7 6 5 6 6 5 5 6 3
12 12 12 11 9 9 8 8 9 8 7 7 7 7 7 5 7 6 6 5 7 6
13 13 12 10 10 9 8 8 8 7 7 8 8 7 7 5 6 8 7 5 9 8
14 13 11 10 9 8 8 7 7 7 8 8 8 7 8 8 6 5 7 6 7 7
13 12 11 10 9 8 9 8 8 8 8 8 8 8 7 6 6 6 5 4 4 7
12 11 10 10 9 9 9 9 8 8 8 8 9 8 6 6 5 5 4 4 2 3
11 11 11 10 9 9 9 9 9 9 9 7 6 5 4 5 6 5 5 5 4 5
11 11 10 10 9 9 10 10 10 10 8 8 4 7 4 3 5 5 5 6 5 6
11 11 10 10 9 10 9 9 8 8 8 7 6 4 2 2 4 5 5 5 6 4
12 11 10 9 8 9 9 9 8 8 8 8 6 4 1 4 5 5 6 5 4 6
11 11 10 9 8 9 9 9 8 8 8 7 8 5 2 6 7 6 6 5 4 3
11 10 9 9 9 8 8 9 8 9 7 6 9 7 1 4 2 5 4 4 5 4
10 9 9 8 8 8 8 9 10 10 8 7 9 7 5 3 2 4 4 3 3 3
Wind_Direction
153 152 144 152 140 159 162 169 155 182 179 189 188 188 188 199 214 208 212 211 231 282
146 146 136 134 152 144 143 137 165 172 179 184 188 193 184 221 205 215 203 202 206 183
138 134 136 142 143 148 138 151 162 173 184 184 187 191 189 189 193 200 201 189 182 195
135 133 137 139 141 144 147 160 171 177 178 179 181 190 194 213 175 208 192 182 197 190
135 136 138 139 140 148 160 169 164 170 174 180 183 175 195 199 181 201 208 194 196 173
136 137 138 140 144 160 156 156 162 169 175 179 176 180 196 200 191 214 209 190 187 182
141 141 143 143 152 156 158 157 168 172 166 167 175 177 186 192 203 187 170 135 218 220
142 143 144 149 152 154 157 160 162 159 160 159 181 175 184 188 167 156 157 128 92 55
147 144 145 148 155 162 163 166 167 171 160 169 121 68 49 320 148 166 131 146 130 97
151 148 150 157 165 168 167 165 168 153 148 128 108 78 112 322 150 148 144 155 147 140
158 150 154 162 168 156 168 167 151 143 129 137 121 105 149 264 152 130 130 150 171 163
150 148 156 163 159 160 158 156 149 132 137 146 137 129 250 285 141 136 135 137 135 192
151 148 157 144 162 159 155 153 138 138 149 152 142 132 206 290 90 121 121 125 111 49
146 153 140 147 150 156 154 151 151 152 156 170 138 120 113 67 161 155 162 153 142 123